Location: Praha
(50.0830°N, 14.4670°E)
Time: 10:27:10
(UTC+02:00)

ISS - Pass Details

Date: 20 May 2019
Orbit: 407 x 410 km, 51.6° (Epoch: 21 May)

Event Time Altitude Azimuth Distance (km) Brightness Sun altitude
Rises 22:46:34 0° 251° (WSW) 2,328 0.2 -14.0°
Reaches altitude 10° 22:48:39 10° 251° (WSW) 1,470 -0.8 -14.2°
Maximum altitude 22:51:57 86° 163° (SSE) 415 -3.9 -14.5°
Drops below altitude 10° 22:55:16 10° 75° (ENE) 1,475 -1.1 -14.7°
Sets 22:57:21 0° 75° (ENE) 2,338 -0.1 -14.9°
